Regional Weather Roundup
Issued by NWS San Angelo, TX

Home | Current Version | Previous Version | Text Only | Print | Product List | Glossary On
Versions: 1 2 3 4 5 6 7 8 9 10 11 12 13 14 15 16 17 18 19 20 21 22 23 24 25 26 27 28 29 30 31 32 33 34 35 36 37 38 39 40 41 42 43 44 45 46 47 48 49 50
000
ASUS44 KSJT 020610
RWRSJT
WEST CENTRAL TEXAS REGIONAL WEATHER ROUNDUP
NATIONAL WEATHER SERVICE SAN ANGELO TX
100 AM CDT THU APR 02 2015

NOTE: "FAIR" INDICATES FEW OR NO CLOUDS BELOW 12,000 FEET WITH NO
SIGNIFICANT WEATHER AND/OR OBSTRUCTIONS TO VISIBILITY.

TXZ049-054-064>066-071>073-076>078-098-099-113-114-127-128-139-140-
154-155-168>170-020700
...LOCATIONS ACROSS WEST CENTRAL TEXAS...

CITY           SKY/WX    TMP DP  RH WIND       PRES   REMARKS
SAN ANGELO     CLEAR     70  59  68 S18       29.86S
ABILENE        CLEAR     71  57  61 S22G30    29.82F
DYESS AFB      CLEAR     70  58  66 S24G30    29.80F
JUNCTION       CLEAR     67  63  87 S7        29.91S
SWEETWATER     CLEAR     70  56  60 S20G26    29.86S
BROWNWOOD      MOCLDY    66  59  77 S9        29.87S
COLEMAN        CLEAR     65  58  78 S8        29.87R
SONORA         CLEAR     66  61  82 S6        29.96S
OZONA          FAIR      66  59  77 S10       29.93F
BRADY          CLEAR     66  61  82 S8        29.88F
$$

TEXAS PANHANDLE/OKLAHOMA PANHANDLE

CITY           SKY/WX    TMP DP  RH WIND       PRES   REMARKS
AMARILLO       CLEAR     62  28  27 SW13      29.79R
BORGER         CLEAR     71  22  15 W14       29.73R
CANADIAN       MOCLDY    70  43  37 SW12      29.66R
DALHART        CLEAR     52  25  35 NW9       29.80R
DUMAS          CLEAR     55  25  31 W12       29.78R
GUYMON         NOT AVBL
HEREFORD       CLEAR     59  33  37 W8        29.83R
PAMPA          CLEAR     65  26  22 SW16G22   29.74R
PERRYTON       MOCLDY    67  27  22 W16       29.67R
$$

SOUTHERN PANHANDLE/SOUTH PLAINS/ROLLING PLAINS

CITY           SKY/WX    TMP DP  RH WIND       PRES   REMARKS
LUBBOCK        PTCLDY    59  37  44 SW9       29.81S
SNYDER         CLEAR     68  56  65 S15G21    29.84S
CHILDRESS      CLEAR     65  48  54 S13       29.71F
SEMINOLE       CLEAR     61  34  36 SW8       29.87S
$$

PERMIAN BASIN

CITY           SKY/WX    TMP DP  RH WIND       PRES   REMARKS
MIDLAND        CLEAR     68  59  73 S13       29.87S
ODESSA         CLEAR     68  58  70 S17       29.88S
WINK           CLEAR     61  37  41 W6        29.85R
$$

FAR WEST/SOUTHWEST MOUNTAINS/TRANS PECOS

CITY           SKY/WX    TMP DP  RH WIND       PRES   REMARKS
ALPINE         CLEAR     56  35  44 SW10      30.06S
DRYDEN           N/A     67  61  81 E6        29.88S
EL PASO        PTCLDY    72  34  24 SW22      29.95R
FORT STOCKTON  CLEAR     63  45  51 S13       29.90S
GUADALUPE PASS CLEAR     62  31  31 SW22      30.00F
MARFA          CLEAR     50  36  57 N3        30.04S
PECOS          CLEAR     59  39  47 S3        29.87R
$$

DALLAS/FORT WORTH METROPLEX

CITY           SKY/WX    TMP DP  RH WIND       PRES   REMARKS
DFW AIRPORT    PTCLDY    68  64  87 S17G26    29.85R
FTW MEACHAM    PTCLDY    70  64  81 S17G28    29.84R
DAL-EXECUTIVE  CLEAR     68  64  87 S12G23    29.85S
GRAND PRAIRIE  NOT AVBL
ADDISON        CLEAR     70  64  81 S15       29.87S
MESQUITE       PTCLDY    68  64  86 S15       29.88S
LANCASTER      PTCLDY    67  62  84 S12G17    29.88S
$$

NORTH CENTRAL TEXAS

CITY           SKY/WX    TMP DP  RH WIND       PRES   REMARKS
SHRMAN/DENISON CLEAR     69  66  91 S17       29.84F
GAINESVILLE    CLEAR     67  63  88 S15       29.84S
BRIDGEPORT     CLEAR     69  64  84 S12       29.83S
DENTON         CLEAR     68  64  87 S20G26    29.83S
WAXAHACHIE     PTCLDY    67  66  97 S15G21    29.89R
GRANBURY         N/A     71  64  78 S12G18    29.85S
$$

WESTERN NORTH TEXAS

CITY           SKY/WX    TMP DP  RH WIND       PRES   REMARKS
WICHITA FALLS  CLEAR     69  59  70 S16       29.74F
VERNON         NOT AVBL
BRECKENRIDGE   CLEAR     72  56  58 S18G24    29.81R
COMANCHE       CLEAR     67  62  82 S14       29.86S
$$

CENTRAL AND SOUTH CENTRAL TEXAS

CITY           SKY/WX    TMP DP  RH WIND       PRES   REMARKS
AUSTIN/BERGSTM CLOUDY    70  66  87 S12       29.92S
WACO           PTCLDY    68  65  90 S17       29.88F
HILLSBORO      PTCLDY    68  64  86 S17G23    29.89R
TEMPLE         PTCLDY    70  63  78 S16G23    29.89F
KILLEEN-GRAY   CLOUDY    70  65  85 S14       29.89F
FORT HOOD      MOCLDY    70  64  83 S14       29.89S
GEORGETOWN     CLOUDY    72  64  78 S13G23    29.91S
LAGO VISTA     CLOUDY    70  66  88 S12G17    29.93F
SAN MARCOS     CLOUDY    70  64  83 S12       29.94R
NEW BRAUNFELS  CLOUDY    70  66  87 S12       29.92S
RANDOLPH AFB   CLOUDY    69  67  93 S14       29.92F
SAN ANTONIO    CLOUDY    71  67  87 S14       29.93S
STINSON        CLOUDY    70  66  87 S12       29.91F
PLEASANTON     NOT AVBL
LA GRANGE      MOCLDY    71  68  90 SE6       29.92F
GIDDINGS       CLOUDY    69  65  88 S8        29.98F
$$

EAST TEXAS

CITY           SKY/WX    TMP DP  RH WIND       PRES   REMARKS
PARIS          NOT AVBL
CLARKSVILLE    NOT AVBL
TYLER          CLEAR     68  63  84 S15       29.91S
LONGVIEW       CLEAR     69  63  81 S14       29.91S
PALESTINE      PTCLDY    67  65  91 S7        29.93F
NACOGDOCHES    PTCLDY    66  63  88 S10       29.96S
$$

TEXAS HILL COUNTRY AND EDWARDS PLATEAU

CITY           SKY/WX    TMP DP  RH WIND       PRES   REMARKS
LLANO          CLOUDY    72  64  78 S6        29.94R
HORSESHOE BAY  CLOUDY    69  65  87 S6        29.91F
KERRVILLE      CLOUDY    69  66  91 S12       29.94S
FREDERICKSBRG  CLOUDY    69  65  85 S8        29.93S
ROCKSPRINGS    NOT AVBL
HONDO          CLOUDY    70  67  90 SE12      29.94S
UVALDE         PTCLDY    68  66  94 E7        29.92S
DEL RIO        CLEAR     69  63  81 E6        29.88R
$$

SOUTHEAST TEXAS

CITY           SKY/WX    TMP DP  RH WIND       PRES   REMARKS
COLLEGE STN    MOCLDY    68  66  93 S12       29.93F
CALDWELL       CLEAR     66  66 100 S10       29.96F
CROCKETT       CLOUDY    70  70 100 S10       29.97S
BRENHAM        CLEAR     70  68  93 S9G17     29.95F
HUNTSVILLE     CLEAR     68  66  93 S8        29.94F
CONROE         CLOUDY    65  64  97 SE5       29.96F FOG
HOUSTON BUSH   MOCLDY    69  67  93 S5        29.97S
HOUSTON HOBBY  MOCLDY    69  68  96 SE5       29.96S
PERLAND        CLOUDY    71  68  90 SE6       29.98S
WHARTON        CLOUDY    71  69  93 SE13      29.96S
$$

THE UPPER TEXAS COAST

CITY           SKY/WX    TMP DP  RH WIND       PRES   REMARKS
ORANGE         CLEAR     70  66  88 SE7       30.01S
PORT ARTHUR    CLEAR     70  67  90 MISG      29.98F
GALVESTON      PTCLDY    69  69 100 SE10      29.98F
ANGLETON       CLOUDY    70  69  97 S12       29.96S
BAY CITY       CLOUDY    72  71  99 SE9       29.95F
$$

TEXAS COASTAL BEND, RIO GRANDE PLAINS DEEP SOUTH TEXAS

CITY           SKY/WX    TMP DP  RH WIND       PRES   REMARKS
VICTORIA       CLOUDY    71  70  96 S14       29.94S
BEEVILLE       CLOUDY    70  70  99 S12G20    29.93S
ROCKPORT       CLOUDY    72  69  90 SE12G23   29.93F FOG
PORT ARANSAS   CLOUDY    68  68  99 SE7       29.93S FOG
PORT LAVACA    CLOUDY    71  69  95 S13       29.94F
CORPUS CHRISTI CLOUDY    72  69  90 S18       29.92F
KINGSVILLE NAS CLOUDY    71  71 100 S9        29.92S
COTULLA        CLEAR     70  67  90 SE9       29.90S
LAREDO         CLEAR     72  68  87 SE10      29.91F
BROWNSVILLE    CLOUDY    74  72  93 S16       29.94F FOG
PORT ISABEL    CLOUDY    74  71  91 S16       29.93F FOG
HEBBRONVILLE     N/A     69  66  91 SE7       29.93S
MCALLEN        CLOUDY    75  70  84 S14       29.93F
WESLACO        CLOUDY    71  68  92 S9        29.93S
FALFURRIAS     MOCLDY    69  67  93 SE6       29.92S
EDINBURG       CLOUDY    73  69  88 S7        29.93S
$$


USA.gov is the U.S. government's official web portal to all federal, state and local government web resources and services.